Weather in Pangkal Pinang

Indonesia     2°06′30″S   106°06′15″E
temp.,
°C
wind,
m/s
gust,
m/s
humid.,
%
clouds,
%
prec.,
mm/h
press.,
hPa
HPBL,
m
6 may, thu
thu601:00+24wsw009291 0.2 100811
04:00+24sw009469 0.0 100713
07:00+25ssw019498 3.4 101066
10:00+33sse115593 0.1 10101193
13:00+35ene224331 0.1 10072347
16:00+29nne127183 0.9 1007357
19:00+25ne129188 2.5 100937
22:00+25e119277 0.4 101015
7 may, fri
fri701:00+25ese1191100 0.4 100911
04:00+24sse019647 1.7 100812
07:00+25sse019585 4.8 101064
10:00+30e117192 2.8 1011936
13:00+30nne226899 4.6 10081075
16:00+29ne237268 1.8 1007527
19:00+25ne118855 2.1 101011
22:00+24nnw009020 0.0 101111
8 may, sat
sat801:00+24wsw009245 0.0 101011
04:00+24ssw01935 0.0 100812
07:00+25s128811 0.0 101097
10:00+32se125451 0.0 10101370
13:00+32e335698 0.3 10071655
16:00+29ene128021 3.0 1007231
19:00+25e11925 4.8 100912
22:00+25e119499 0.0 101011
9 may, sun
sun901:00+24sw00955 0.0 100811
04:00+24s11965 0.0 100813
07:00+25s12915 0.2 101092
10:00+32se125966 0.7 10101199
13:00+34nne125185 1.4 10061905
16:00+28ne248612 3.9 1006207
19:00+25ne12946 6.1 100936
22:00+24ene11946 0.1 101011
10 may, mon
mon1001:00+24n019488 0.1 100811
04:00+24wnw009528 0.0 100811
07:00+24sw009583 1.9 101043
10:00+28w1280100 3.8 1011475
13:00+28w2382100 7.5 1009729
16:00+29w127699 1.4 1007651
19:00+25sse11896 1.4 100812
22:00+25se119041 0.0 101013